Shreveport, LA

6:38 PM CST on January 21, 2017 (GMT -0600)
Shreveport

Weather History for KSHV - January, 2014

Change the Weather History Date:

Wednesday, January 1, 2014

  Actual Average Record
Temperature  
Mean Temperature 46 °F 46 °F  
Max Temperature 63 °F 57 °F 80 °F (1952)
Min Temperature 29 °F 36 °F 11 °F (1928)
Degree Days  
Heating Degree Days 19 19  
Month to date heating degree days 19 19  
Since 1 July heating degree days 989 921  
Cooling Degree Days 0 0  
Month to date cooling degree days 0 0  
Year to date cooling degree days 0 0  
Moisture  
Dew Point 42 °F    
Average Humidity 71    
Maximum Humidity 93    
Minimum Humidity 48    
Precipitation  
Precipitation T in 0.12 in 2.36 in (1937)
Month to date precipitation T 0.12  
Year to date precipitation T 0.12  
Snow  
Snow 0.00 in - - ()
Month to date snowfall 0.0  
Since 1 July snowfall T  
Snow Depth 0.00 in    
Sea Level Pressure  
Sea Level Pressure 30.09 in    
Wind  
Wind Speed 7 mph (South)    
Max Wind Speed 16 mph    
Max Gust Speed 22 mph    
Visibility 9 miles    
Events      
T = Trace of Precipitation, MM = Missing Value Source: NWS Daily Summary

Daily Weather History Graph

Daily Weather History Graph

Search for Another Location

Airport or City:

Trip Planner

Search our weather history database for the weather conditions in past years. The results will help you decide how hot, cold, wet, or windy it might be!

Date:

Astronomy

Jan. 01, 2014 Rise Set
Actual Time 7:17 AM CST 5:21 PM CST
Civil Twilight 6:49 AM CST 5:48 PM CST
Nautical Twilight 6:19 AM CST 6:18 PM CST
Astronomical Twilight 5:49 AM CST 6:48 PM CST
Moon 7:11 AM CST (1/1) 6:02 PM CST (1/1)
Length of Visible Light 10h 58m
Length of Day
10h 04m
New Moon, 0% of the Moon is Illuminated
Jan 1
New Moon
Jan 7
First Quarter
Jan 15
Full
Jan 23
Last Quarter
Jan 30
New

Hourly Weather History & Observations

Time (CST) Temp. Windchill Dew Point Humidity Pressure Visibility Wind Dir Wind Speed Gust Speed Precip Events Conditions
12:56 AM 35.1 °F - 30.9 °F 85% 30.26 in 5.0 mi Calm Calm - N/A   Scattered Clouds
1:56 AM 32.0 °F 28.7 °F 30.0 °F 92% 30.24 in 7.0 mi SE 3.5 mph - N/A   Scattered Clouds
2:56 AM 32.0 °F 28.7 °F 28.9 °F 88% 30.24 in 7.0 mi SSE 3.5 mph - N/A   Scattered Clouds
3:56 AM 32.0 °F - 28.9 °F 88% 30.22 in 7.0 mi Calm Calm - N/A   Scattered Clouds
4:56 AM 32.0 °F 27.5 °F 30.0 °F 92% 30.20 in 10.0 mi SSE 4.6 mph - N/A   Scattered Clouds
5:56 AM 32.0 °F - 28.9 °F 88% 30.20 in 9.0 mi Calm Calm - N/A   Partly Cloudy
6:56 AM 30.0 °F 25.2 °F 28.0 °F 92% 30.20 in 8.0 mi SE 4.6 mph - N/A   Partly Cloudy
7:56 AM 32.0 °F - 30.0 °F 92% 30.20 in 7.0 mi Calm Calm - N/A   Scattered Clouds
8:56 AM 39.0 °F 36.8 °F 35.1 °F 86% 30.19 in 9.0 mi SSE 3.5 mph - N/A   Scattered Clouds
9:56 AM 45.0 °F 40.6 °F 37.9 °F 76% 30.19 in 10.0 mi South 8.1 mph - N/A   Scattered Clouds
10:56 AM 50.0 °F - 39.9 °F 68% 30.16 in 10.0 mi South 6.9 mph - N/A   Mostly Cloudy
11:56 AM 55.0 °F - 44.1 °F 67% 30.12 in 10.0 mi SSW 13.8 mph - N/A   Mostly Cloudy
12:56 PM 59.0 °F - 43.0 °F 55% 30.07 in 10.0 mi South 8.1 mph - N/A   Mostly Cloudy
1:56 PM 62.1 °F - 42.1 °F 48% 30.02 in 10.0 mi SSW 8.1 mph - N/A   Overcast
2:56 PM 61.0 °F - 44.1 °F 54% 30.01 in 10.0 mi South 8.1 mph - N/A   Overcast
3:56 PM 60.1 °F - 46.0 °F 60% 30.00 in 10.0 mi South 12.7 mph - N/A   Overcast
4:56 PM 57.9 °F - 46.9 °F 67% 29.99 in 10.0 mi South 9.2 mph - N/A   Mostly Cloudy
5:56 PM 55.9 °F - 48.0 °F 75% 29.98 in 10.0 mi South 10.4 mph - 0.00 in   Mostly Cloudy
6:56 PM 54.0 °F - 48.0 °F 80% 29.98 in 10.0 mi South 9.2 mph - N/A   Scattered Clouds
7:56 PM 54.0 °F - 48.9 °F 83% 29.99 in 10.0 mi South 8.1 mph - N/A   Scattered Clouds
8:31 PM 55.4 °F - 50.0 °F 82% 30.00 in 10.0 mi South 5.8 mph - N/A   Mostly Cloudy
8:56 PM 54.0 °F - 50.0 °F 86% 30.00 in 10.0 mi South 5.8 mph - N/A   Overcast
9:28 PM 55.4 °F - 51.8 °F 88% 30.00 in 10.0 mi South 9.2 mph - N/A   Mostly Cloudy
9:56 PM 54.0 °F - 51.1 °F 90% 29.99 in 10.0 mi South 9.2 mph - N/A   Partly Cloudy
10:49 PM 53.6 °F - 51.8 °F 94% 29.99 in 8.0 mi SSW 9.2 mph - N/A   Partly Cloudy
10:56 PM 54.0 °F - 52.0 °F 93% 29.99 in 8.0 mi SSW 9.2 mph - N/A   Partly Cloudy
11:11 PM 53.6 °F - 51.8 °F 94% 29.99 in 8.0 mi SSW 9.2 mph - N/A   Partly Cloudy
11:32 PM 53.6 °F - 51.8 °F 94% 30.00 in 7.0 mi SW 10.4 mph - N/A   Mostly Cloudy
11:56 PM 55.0 °F - 52.0 °F 89% 30.00 in 7.0 mi SW 8.1 mph - N/A   Overcast